User: anonymous   Login
Location: Unspecified
(0.0000°N, 0.0000°E)
Time: 16:32:17
(UTC+00:00)
Language:

CARTOSAT 2B - Orbit

View from above orbital plane
View from above orbital plane
View from above satellite
View from above satellite

Ground track
Ground track

The orbit data is extracted from the following two-line orbital elements,

1 36795U 10035A   20017.52384927  .00000004  00000-0  76346-5 0  9994
2 36795  97.9431  79.2034 0013458 209.5132 150.5324 14.78680537513731
Epoch (UTC): 17 January 2020 12:34:20
Eccentricity: 0.0013458
inclination: 97.9431°
perigee height: 624 km
apogee height: 643 km
right ascension of ascending node: 79.2034°
argument of perigee: 209.5132°
revolutions per day: 14.78680537
mean anomaly at epoch: 150.5324°
orbit number at epoch: 51373

The dashed part of the orbit path shows where the satellite is in the earth's shadow,  

DLR